Time,TemperatureF,DewpointF,PressureIn,WindDirection,WindDirectionDegrees,WindSpeedMPH,WindSpeedGustMPH,Humidity,HourlyPrecipIn,Conditions,Clouds,dailyrainin,SoftwareType,DateUTC
2013-03-03 00:00:00,18.0,18.0,29.07,WNW,289,1.0,1.0,100,0.00,,CLR,0.00,VWS V14.01,2013-03-03 06:00:00,
2013-03-03 00:05:00,18.0,18.0,29.07,WNW,289,0.0,1.0,100,0.00,,CLR,0.00,VWS V14.01,2013-03-03 06:05:00,
2013-03-03 00:10:00,17.9,17.9,29.07,WNW,289,0.0,0.0,100,0.00,,CLR,0.00,VWS V14.01,2013-03-03 06:10:00,
2013-03-03 00:15:00,17.9,17.9,29.07,WNW,289,0.0,0.0,100,0.00,,CLR,0.00,VWS V14.01,2013-03-03 06:15:00,
2013-03-03 00:20:00,17.7,17.7,29.07,WNW,289,0.0,0.0,100,0.00,,CLR,0.00,VWS V14.01,2013-03-03 06:20:00,
2013-03-03 00:25:00,17.4,17.4,29.07,WNW,289,0.0,1.0,100,0.00,,CLR,0.00,VWS V14.01,2013-03-03 06:25:00,
2013-03-03 00:30:00,17.2,17.2,29.06,West,270,0.0,0.0,100,0.00,,CLR,0.00,VWS V14.01,2013-03-03 06:30:00,
2013-03-03 00:35:00,16.8,16.8,29.06,West,271,0.0,1.0,100,0.00,,BKN110,0.00,VWS V14.01,2013-03-03 06:35:00,
2013-03-03 00:40:00,16.7,16.7,29.06,West,271,0.0,1.0,100,0.00,,BKN110,0.00,VWS V14.01,2013-03-03 06:40:00,
2013-03-03 00:45:00,16.6,16.6,29.06,West,271,0.0,1.0,100,0.00,,BKN110,0.00,VWS V14.01,2013-03-03 06:45:00,
2013-03-03 00:50:00,16.4,16.4,29.06,West,271,0.0,0.0,100,0.00,,BKN110,0.00,VWS V14.01,2013-03-03 06:50:00,
2013-03-03 00:55:00,16.3,16.3,29.06,West,271,0.0,0.0,100,0.00,,BKN110,0.00,VWS V14.01,2013-03-03 06:55:00,
2013-03-03 01:00:00,16.1,16.1,29.06,West,270,2.0,2.0,100,0.00,,BKN110,0.00,VWS V14.01,2013-03-03 07:00:00,
2013-03-03 01:05:00,16.0,16.0,29.07,West,270,3.0,4.0,100,0.00,,BKN110,0.00,VWS V14.01,2013-03-03 07:05:00,
2013-03-03 01:10:00,15.9,15.9,29.07,West,268,1.0,2.0,100,0.00,,BKN110,0.00,VWS V14.01,2013-03-03 07:10:00,
2013-03-03 01:15:00,15.7,15.7,29.07,West,268,1.0,2.0,100,0.00,,BKN110,0.00,VWS V14.01,2013-03-03 07:15:00,
2013-03-03 01:20:00,15.5,15.5,29.06,West,266,2.0,2.0,100,0.00,,BKN110,0.00,VWS V14.01,2013-03-03 07:20:00,
2013-03-03 01:25:00,15.5,15.5,29.06,WSW,245,1.0,4.0,100,0.00,,BKN110,0.00,VWS V14.01,2013-03-03 07:25:00,
2013-03-03 01:30:00,15.4,15.4,29.06,WSW,244,0.0,2.0,100,0.00,,BKN110,0.00,VWS V14.01,2013-03-03 07:30:00,
2013-03-03 01:35:00,15.2,15.2,29.05,WSW,244,1.0,4.0,100,0.00,,CLR,0.00,VWS V14.01,2013-03-03 07:35:00,
2013-03-03 01:40:00,15.0,15.0,29.05,WSW,243,2.0,2.0,100,0.00,,CLR,0.00,VWS V14.01,2013-03-03 07:40:00,
2013-03-03 01:45:00,14.9,14.9,29.05,WSW,241,2.0,3.0,100,0.00,,CLR,0.00,VWS V14.01,2013-03-03 07:45:00,
2013-03-03 01:50:00,14.8,14.8,29.05,SW,236,1.0,1.0,100,0.00,,CLR,0.00,VWS V14.01,2013-03-03 07:50:00,
2013-03-03 01:55:00,14.6,14.6,29.05,SW,226,1.0,3.0,100,0.00,,CLR,0.00,VWS V14.01,2013-03-03 07:55:00,
2013-03-03 02:00:00,14.5,14.5,29.05,SW,226,2.0,3.0,100,0.00,,CLR,0.00,VWS V14.01,2013-03-03 08:00:00,
2013-03-03 02:05:00,14.4,14.4,29.05,SW,226,2.0,3.0,100,0.00,,CLR,0.00,VWS V14.01,2013-03-03 08:05:00,
2013-03-03 02:10:00,14.3,14.3,29.05,SW,226,2.0,2.0,100,0.00,,CLR,0.00,VWS V14.01,2013-03-03 08:10:00,
2013-03-03 02:15:00,14.3,14.3,29.05,SW,227,1.0,3.0,100,0.00,,CLR,0.00,VWS V14.01,2013-03-03 08:15:00,
2013-03-03 02:20:00,14.2,14.2,29.04,SW,227,0.0,1.0,100,0.00,,CLR,0.00,VWS V14.01,2013-03-03 08:20:00,
2013-03-03 02:25:00,14.2,14.2,29.04,SW,227,0.0,3.0,100,0.00,,CLR,0.00,VWS V14.01,2013-03-03 08:25:00,
2013-03-03 02:30:00,14.2,14.2,29.04,SW,227,1.0,1.0,100,0.00,,CLR,0.00,VWS V14.01,2013-03-03 08:30:00,
2013-03-03 02:35:00,14.2,14.2,29.04,SW,227,0.0,1.0,100,0.00,,CLR,0.00,VWS V14.01,2013-03-03 08:35:00,
2013-03-03 02:40:00,14.1,14.1,29.03,SW,227,0.0,0.0,100,0.00,,CLR,0.00,VWS V14.01,2013-03-03 08:40:00,
2013-03-03 02:45:00,14.2,14.2,29.03,SW,227,2.0,3.0,100,0.00,,CLR,0.00,VWS V14.01,2013-03-03 08:45:00,
2013-03-03 02:50:00,14.3,14.3,29.03,SW,227,1.0,2.0,100,0.00,,CLR,0.00,VWS V14.01,2013-03-03 08:50:00,
2013-03-03 02:55:00,14.3,14.3,29.03,SW,227,0.0,2.0,100,0.00,,CLR,0.00,VWS V14.01,2013-03-03 08:55:00,
2013-03-03 03:00:00,14.1,14.1,29.02,SW,227,1.0,1.0,100,0.00,,CLR,0.00,VWS V14.01,2013-03-03 09:00:00,
2013-03-03 03:05:00,14.1,14.1,29.03,SW,227,1.0,2.0,100,0.00,,CLR,0.02,VWS V14.01,2013-03-03 09:05:00,
2013-03-03 03:10:00,14.1,14.1,29.02,SW,227,1.0,1.0,100,0.00,,CLR,0.00,VWS V14.01,2013-03-03 09:10:00,
2013-03-03 03:15:00,14.0,14.0,29.03,SW,227,2.0,2.0,100,0.00,,CLR,0.00,VWS V14.01,2013-03-03 09:15:00,
2013-03-03 03:20:00,14.0,14.0,29.03,SW,227,0.0,1.0,100,0.00,,CLR,0.00,VWS V14.01,2013-03-03 09:20:00,
2013-03-03 03:25:00,13.9,13.9,29.03,SW,227,0.0,4.0,100,0.00,,CLR,0.00,VWS V14.01,2013-03-03 09:25:00,
2013-03-03 03:30:00,13.8,13.8,29.03,SW,227,2.0,2.0,100,0.00,,CLR,0.00,VWS V14.01,2013-03-03 09:30:00,
2013-03-03 03:35:00,13.8,13.8,29.03,WSW,240,1.0,4.0,100,0.00,,CLR,0.00,VWS V14.01,2013-03-03 09:35:00,
2013-03-03 03:40:00,13.9,13.9,29.03,West,262,1.0,2.0,100,0.00,,CLR,0.00,VWS V14.01,2013-03-03 09:40:00,
2013-03-03 03:45:00,14.0,14.0,29.03,West,262,2.0,4.0,100,0.00,,CLR,0.00,VWS V14.01,2013-03-03 09:45:00,
2013-03-03 03:50:00,14.1,14.1,29.03,West,264,2.0,3.0,100,0.00,,CLR,0.00,VWS V14.01,2013-03-03 09:50:00,
2013-03-03 03:55:00,14.1,14.1,29.03,West,277,0.0,4.0,100,0.00,,CLR,0.00,VWS V14.01,2013-03-03 09:55:00,
2013-03-03 04:00:00,14.2,14.2,29.03,West,277,1.0,2.0,100,0.00,,CLR,0.00,VWS V14.01,2013-03-03 10:00:00,
2013-03-03 04:05:00,14.2,14.2,29.03,West,277,3.0,4.0,100,0.00,,CLR,0.00,VWS V14.01,2013-03-03 10:05:00,
2013-03-03 04:10:00,14.3,14.3,29.04,West,277,2.0,3.0,100,0.00,,CLR,0.00,VWS V14.01,2013-03-03 10:10:00,
2013-03-03 04:15:00,14.2,14.2,29.03,West,277,1.0,3.0,100,0.00,,CLR,0.00,VWS V14.01,2013-03-03 10:15:00,
2013-03-03 04:20:00,14.2,14.2,29.03,West,277,1.0,2.0,100,0.00,,CLR,0.00,VWS V14.01,2013-03-03 10:20:00,
2013-03-03 04:25:00,14.0,14.0,29.04,West,276,0.0,3.0,100,0.00,,CLR,0.00,VWS V14.01,2013-03-03 10:25:00,
2013-03-03 04:30:00,14.0,14.0,29.04,West,276,3.0,3.0,100,0.00,,CLR,0.00,VWS V14.01,2013-03-03 10:30:00,
2013-03-03 04:35:00,13.9,13.9,29.03,West,276,2.0,3.0,100,0.00,,CLR,0.00,VWS V14.01,2013-03-03 10:35:00,
2013-03-03 04:40:00,13.9,13.9,29.04,West,276,0.0,3.0,100,0.00,,CLR,0.00,VWS V14.01,2013-03-03 10:40:00,
2013-03-03 04:45:00,13.8,13.8,29.04,West,276,0.0,3.0,100,0.00,,CLR,0.00,VWS V14.01,2013-03-03 10:45:00,
2013-03-03 04:50:00,13.6,13.6,29.04,West,276,0.0,0.0,100,0.00,,CLR,0.00,VWS V14.01,2013-03-03 10:50:00,
2013-03-03 04:55:00,13.5,13.5,29.04,West,276,0.0,0.0,100,0.00,,CLR,0.00,VWS V14.01,2013-03-03 10:55:00,
2013-03-03 05:00:00,13.4,13.4,29.04,West,276,0.0,0.0,100,0.00,,CLR,0.00,VWS V14.01,2013-03-03 11:00:00,
2013-03-03 05:05:00,13.3,13.3,29.04,West,276,0.0,0.0,100,0.00,,CLR,0.00,VWS V14.01,2013-03-03 11:05:00,
2013-03-03 05:10:00,13.2,13.2,29.04,West,276,0.0,0.0,100,0.00,,CLR,0.00,VWS V14.01,2013-03-03 11:10:00,
2013-03-03 05:15:00,13.2,13.2,29.05,West,276,2.0,3.0,100,0.00,,CLR,0.00,VWS V14.01,2013-03-03 11:15:00,
2013-03-03 05:20:00,13.1,13.1,29.04,West,276,1.0,3.0,100,0.00,,CLR,0.00,VWS V14.01,2013-03-03 11:20:00,
2013-03-03 05:25:00,13.1,13.1,29.05,West,276,0.0,3.0,100,0.00,,CLR,0.00,VWS V14.01,2013-03-03 11:25:00,
2013-03-03 05:30:00,13.1,13.1,29.04,West,276,3.0,3.0,100,0.00,,CLR,0.00,VWS V14.01,2013-03-03 11:30:00,
2013-03-03 05:37:00,13.1,13.1,29.04,West,270,1.0,3.0,100,0.00,,CLR,0.00,VWS V14.01,2013-03-03 11:37:00,
2013-03-03 05:40:00,14.0,14.0,29.04,West,270,2.0,3.0,100,0.00,,CLR,0.00,VWS V14.01,2013-03-03 11:40:00,
2013-03-03 05:42:00,13.2,13.2,29.04,West,276,1.0,2.0,100,0.00,,CLR,0.00,VWS V14.01,2013-03-03 11:42:00,
2013-03-03 05:47:00,13.1,13.1,29.04,West,276,1.0,3.0,100,0.00,,CLR,0.00,VWS V14.01,2013-03-03 11:47:00,
2013-03-03 05:50:00,13.8,13.8,29.04,West,270,0.0,3.0,100,0.00,,CLR,0.00,VWS V14.01,2013-03-03 11:50:00,
2013-03-03 06:00:00,13.5,13.5,29.04,West,270,0.0,0.0,100,0.00,,CLR,0.00,VWS V14.01,2013-03-03 12:00:00,
2013-03-03 06:10:00,13.3,13.3,29.04,West,270,0.0,0.0,100,0.00,,CLR,0.00,VWS V14.01,2013-03-03 12:10:00,
2013-03-03 06:20:00,13.2,13.2,29.04,West,270,1.0,3.0,100,0.00,,CLR,0.00,VWS V14.01,2013-03-03 12:20:00,
2013-03-03 06:30:00,13.1,13.1,29.04,West,270,1.0,3.0,100,0.00,,CLR,0.00,VWS V14.01,2013-03-03 12:30:00,
2013-03-03 06:40:00,13.1,13.1,29.04,West,270,2.0,3.0,100,0.00,,CLR,0.00,VWS V14.01,2013-03-03 12:40:00,
2013-03-03 06:50:00,13.2,13.2,29.04,West,270,1.0,3.0,100,0.00,,CLR,0.00,VWS V14.01,2013-03-03 12:50:00,
2013-03-03 07:04:00,12.2,12.2,29.04,West,270,0.0,2.0,100,0.00,,CLR,0.00,VWS V14.01,2013-03-03 13:04:00,
2013-03-03 07:09:00,12.4,12.4,29.04,West,276,0.0,1.0,100,0.00,,CLR,0.00,VWS V14.01,2013-03-03 13:09:00,
2013-03-03 07:14:00,12.2,12.2,29.04,West,276,2.0,2.0,100,0.00,,CLR,0.00,VWS V14.01,2013-03-03 13:14:00,
2013-03-03 07:19:00,12.1,12.1,29.04,North,354,2.0,2.0,100,0.00,,CLR,0.00,VWS V14.01,2013-03-03 13:19:00,
2013-03-03 07:24:00,12.1,12.1,29.04,North,354,0.0,2.0,100,0.00,,CLR,0.00,VWS V14.01,2013-03-03 13:24:00,
2013-03-03 07:29:00,12.2,12.2,29.05,North,354,0.0,2.0,100,0.00,,CLR,0.00,VWS V14.01,2013-03-03 13:29:00,
2013-03-03 07:34:00,12.2,12.2,29.05,North,354,1.0,2.0,100,0.00,,CLR,0.00,VWS V14.01,2013-03-03 13:34:00,
2013-03-03 07:39:00,12.4,12.4,29.05,North,354,0.0,2.0,100,0.00,,CLR,0.00,VWS V14.01,2013-03-03 13:39:00,
2013-03-03 07:44:00,12.4,12.4,29.05,North,354,0.0,2.0,100,0.00,,CLR,0.00,VWS V14.01,2013-03-03 13:44:00,
2013-03-03 07:49:00,12.5,12.5,29.04,North,354,0.0,2.0,100,0.00,,CLR,0.00,VWS V14.01,2013-03-03 13:49:00,
2013-03-03 07:54:00,12.6,12.6,29.04,North,354,0.0,2.0,100,0.00,,CLR,0.00,VWS V14.01,2013-03-03 13:54:00,
2013-03-03 07:59:00,12.7,12.7,29.05,North,354,0.0,2.0,100,0.00,,CLR,0.00,VWS V14.01,2013-03-03 13:59:00,
2013-03-03 08:04:00,12.8,12.8,29.05,North,354,0.0,2.0,100,0.00,,CLR,0.00,VWS V14.01,2013-03-03 14:04:00,
2013-03-03 08:09:00,13.0,13.0,29.05,North,354,1.0,2.0,100,0.00,,CLR,0.00,VWS V14.01,2013-03-03 14:09:00,
2013-03-03 08:14:00,13.1,13.1,29.04,North,354,0.0,2.0,100,0.00,,CLR,0.00,VWS V14.01,2013-03-03 14:14:00,
2013-03-03 08:19:00,13.4,13.4,29.04,North,354,1.0,2.0,100,0.00,,CLR,0.00,VWS V14.01,2013-03-03 14:19:00,
2013-03-03 08:24:00,13.5,13.5,29.04,North,354,0.0,1.0,100,0.00,,CLR,0.00,VWS V14.01,2013-03-03 14:24:00,
2013-03-03 08:29:00,13.9,13.9,29.04,North,354,0.0,1.0,100,0.00,,CLR,0.00,VWS V14.01,2013-03-03 14:29:00,
2013-03-03 08:34:00,14.1,14.1,29.04,North,354,0.0,3.0,100,0.00,,CLR,0.00,VWS V14.01,2013-03-03 14:34:00,
2013-03-03 08:39:00,14.5,14.5,29.05,North,354,1.0,3.0,100,0.00,,CLR,0.00,VWS V14.01,2013-03-03 14:39:00,
2013-03-03 08:44:00,14.8,14.8,29.05,North,354,0.0,1.0,100,0.00,,CLR,0.00,VWS V14.01,2013-03-03 14:44:00,
2013-03-03 08:49:00,15.0,15.0,29.05,North,354,0.0,2.0,100,0.00,,CLR,0.00,VWS V14.01,2013-03-03 14:49:00,
2013-03-03 08:54:00,15.5,15.5,29.05,North,354,0.0,1.0,100,0.00,,CLR,0.00,VWS V14.01,2013-03-03 14:54:00,
2013-03-03 08:59:00,15.7,15.7,29.05,North,355,0.0,2.0,100,0.00,,CLR,0.00,VWS V14.01,2013-03-03 14:59:00,
2013-03-03 09:04:00,16.0,16.0,29.05,North,11,0.0,2.0,100,0.00,,CLR,0.00,VWS V14.01,2013-03-03 15:04:00,
2013-03-03 09:09:00,16.3,16.3,29.05,North,11,0.0,2.0,100,0.00,,CLR,0.00,VWS V14.01,2013-03-03 15:09:00,
2013-03-03 09:14:00,16.7,16.7,29.05,North,11,0.0,3.0,100,0.00,,CLR,0.00,VWS V14.01,2013-03-03 15:14:00,
2013-03-03 09:19:00,17.0,17.0,29.05,NE,44,0.0,3.0,100,0.00,,CLR,0.00,VWS V14.01,2013-03-03 15:19:00,
2013-03-03 09:24:00,17.3,17.3,29.05,North,10,0.0,5.0,100,0.00,,CLR,0.00,VWS V14.01,2013-03-03 15:24:00,
2013-03-03 09:29:00,17.6,17.6,29.05,North,10,0.0,5.0,100,0.00,,CLR,0.00,VWS V14.01,2013-03-03 15:29:00,
2013-03-03 09:34:00,17.9,17.9,29.05,North,10,0.0,1.0,100,0.00,,CLR,0.00,VWS V14.01,2013-03-03 15:34:00,
2013-03-03 09:39:00,18.1,18.1,29.05,North,11,0.0,2.0,100,0.00,,CLR,0.00,VWS V14.01,2013-03-03 15:39:00,
2013-03-03 09:44:00,18.3,18.3,29.05,North,11,0.0,1.0,100,0.00,,CLR,0.00,VWS V14.01,2013-03-03 15:44:00,
2013-03-03 09:49:00,18.6,18.6,29.05,North,11,0.0,3.0,100,0.00,,CLR,0.00,VWS V14.01,2013-03-03 15:49:00,
2013-03-03 09:54:00,19.0,19.0,29.05,North,11,1.0,1.0,100,0.00,,CLR,0.00,VWS V14.01,2013-03-03 15:54:00,
2013-03-03 09:59:00,19.3,19.3,29.05,NNE,12,1.0,2.0,100,0.00,,CLR,0.00,VWS V14.01,2013-03-03 15:59:00,
2013-03-03 10:04:00,19.6,19.6,29.05,NNE,12,2.0,2.0,100,0.00,,CLR,0.00,VWS V14.01,2013-03-03 16:04:00,
2013-03-03 10:09:00,19.9,19.9,29.05,NNE,12,1.0,3.0,100,0.00,,CLR,0.00,VWS V14.01,2013-03-03 16:09:00,
2013-03-03 10:14:00,20.3,20.3,29.05,NNE,12,3.0,3.0,100,0.00,,CLR,0.00,VWS V14.01,2013-03-03 16:14:00,
2013-03-03 10:19:00,20.6,20.6,29.05,NNE,12,0.0,3.0,100,0.01,,CLR,0.01,VWS V14.01,2013-03-03 16:19:00,
2013-03-03 10:24:00,20.9,20.9,29.05,NNE,12,1.0,3.0,100,0.01,,CLR,0.01,VWS V14.01,2013-03-03 16:24:00,
2013-03-03 10:29:00,21.1,21.1,29.05,NNE,12,3.0,4.0,100,0.01,,CLR,0.01,VWS V14.01,2013-03-03 16:29:00,
2013-03-03 10:34:00,21.3,21.3,29.05,NNE,12,0.0,3.0,100,0.01,,CLR,0.01,VWS V14.01,2013-03-03 16:34:00,
2013-03-03 10:39:00,21.6,21.6,29.05,NNE,12,2.0,3.0,100,0.01,,CLR,0.01,VWS V14.01,2013-03-03 16:39:00,
2013-03-03 10:44:00,21.9,21.9,29.05,NNE,13,1.0,3.0,100,0.01,,CLR,0.01,VWS V14.01,2013-03-03 16:44:00,
2013-03-03 10:49:00,22.3,22.3,29.04,NNE,13,0.0,4.0,100,0.01,,CLR,0.01,VWS V14.01,2013-03-03 16:49:00,
2013-03-03 10:54:00,22.6,22.6,29.05,NNE,13,0.0,3.0,100,0.01,,CLR,0.01,VWS V14.01,2013-03-03 16:54:00,
2013-03-03 10:59:00,22.8,22.8,29.05,NNE,13,0.0,3.0,100,0.01,,CLR,0.01,VWS V14.01,2013-03-03 16:59:00,
2013-03-03 11:04:00,23.1,23.1,29.04,NNE,13,0.0,2.0,100,0.01,,CLR,0.01,VWS V14.01,2013-03-03 17:04:00,
2013-03-03 11:09:00,23.3,23.3,29.04,NNE,14,0.0,4.0,100,0.01,,CLR,0.01,VWS V14.01,2013-03-03 17:09:00,
2013-03-03 11:14:00,23.6,23.6,29.04,NNE,14,1.0,3.0,100,0.01,,CLR,0.01,VWS V14.01,2013-03-03 17:14:00,
2013-03-03 11:19:00,23.8,23.8,29.04,North,0,0.0,5.0,100,0.01,,CLR,0.01,VWS V14.01,2013-03-03 17:19:00,
2013-03-03 11:24:00,24.0,24.0,29.04,North,359,2.0,4.0,100,0.00,,CLR,0.01,VWS V14.01,2013-03-03 17:24:00,
2013-03-03 11:29:00,24.3,24.3,29.04,NNE,13,2.0,4.0,100,0.00,,CLR,0.01,VWS V14.01,2013-03-03 17:29:00,
2013-03-03 11:34:00,24.4,24.4,29.04,North,0,0.0,3.0,100,0.00,,CLR,0.01,VWS V14.01,2013-03-03 17:34:00,
2013-03-03 11:39:00,24.7,24.7,29.03,North,4,5.0,6.0,100,0.01,,CLR,0.02,VWS V14.01,2013-03-03 17:39:00,
2013-03-03 11:44:00,24.8,24.8,29.03,NNE,20,2.0,5.0,100,0.01,,CLR,0.02,VWS V14.01,2013-03-03 17:44:00,
2013-03-03 11:49:00,25.0,25.0,29.03,North,5,1.0,5.0,100,0.01,,CLR,0.02,VWS V14.01,2013-03-03 17:49:00,
2013-03-03 11:54:00,25.2,25.2,29.03,NNE,12,0.0,5.0,100,0.01,,CLR,0.02,VWS V14.01,2013-03-03 17:54:00,
2013-03-03 11:59:00,25.4,25.4,29.03,NE,41,0.0,5.0,100,0.01,,CLR,0.02,VWS V14.01,2013-03-03 17:59:00,
2013-03-03 12:04:00,25.6,25.6,29.03,NNE,32,2.0,5.0,100,0.01,,CLR,0.02,VWS V14.01,2013-03-03 18:04:00,
2013-03-03 12:09:00,25.8,25.8,29.03,NE,36,3.0,5.0,100,0.01,,CLR,0.02,VWS V14.01,2013-03-03 18:09:00,
2013-03-03 12:14:00,26.0,26.0,29.02,NE,44,0.0,4.0,100,0.01,,CLR,0.02,VWS V14.01,2013-03-03 18:14:00,
2013-03-03 12:19:00,26.1,26.1,29.02,NNE,15,5.0,5.0,100,0.01,,CLR,0.02,VWS V14.01,2013-03-03 18:19:00,
2013-03-03 12:24:00,26.2,26.2,29.02,North,349,0.0,5.0,100,0.01,,CLR,0.02,VWS V14.01,2013-03-03 18:24:00,
2013-03-03 12:29:00,26.5,26.5,29.02,East,85,0.0,5.0,100,0.01,,CLR,0.02,VWS V14.01,2013-03-03 18:29:00,
2013-03-03 12:34:00,26.6,26.6,29.02,North,5,3.0,5.0,100,0.01,,CLR,0.02,VWS V14.01,2013-03-03 18:34:00,
2013-03-03 12:39:00,26.8,26.8,29.02,North,350,1.0,5.0,100,0.01,,CLR,0.02,VWS V14.01,2013-03-03 18:39:00,
2013-03-03 12:44:00,26.9,26.9,29.01,North,0,3.0,5.0,100,0.00,,CLR,0.02,VWS V14.01,2013-03-03 18:44:00,
2013-03-03 12:49:00,26.9,26.9,29.01,North,10,1.0,5.0,100,0.00,,CLR,0.02,VWS V14.01,2013-03-03 18:49:00,
2013-03-03 12:54:00,27.1,27.1,29.01,North,1,2.0,3.0,100,0.00,,CLR,0.02,VWS V14.01,2013-03-03 18:54:00,
2013-03-03 12:59:00,27.2,27.2,29.01,North,3,2.0,5.0,100,0.00,,CLR,0.02,VWS V14.01,2013-03-03 18:59:00,
2013-03-03 13:04:00,27.2,27.2,29.01,North,3,0.0,5.0,100,0.00,,CLR,0.02,VWS V14.01,2013-03-03 19:04:00,
2013-03-03 13:09:00,27.3,27.3,29.00,NNE,12,4.0,6.0,100,0.01,,CLR,0.03,VWS V14.01,2013-03-03 19:09:00,
2013-03-03 13:14:00,27.3,27.3,29.00,North,4,2.0,5.0,100,0.01,,CLR,0.03,VWS V14.01,2013-03-03 19:14:00,
2013-03-03 13:19:00,27.5,27.5,29.00,North,6,1.0,6.0,100,0.01,,CLR,0.03,VWS V14.01,2013-03-03 19:19:00,
2013-03-03 13:24:00,27.7,27.7,29.00,North,5,0.0,4.0,100,0.01,,CLR,0.03,VWS V14.01,2013-03-03 19:24:00,
2013-03-03 13:29:00,27.8,27.8,29.00,North,1,3.0,5.0,100,0.01,,CLR,0.03,VWS V14.01,2013-03-03 19:29:00,
2013-03-03 13:34:00,27.8,27.8,29.00,North,0,0.0,4.0,100,0.01,,CLR,0.03,VWS V14.01,2013-03-03 19:34:00,
2013-03-03 13:39:00,27.9,27.9,29.00,North,0,1.0,4.0,100,0.01,,CLR,0.03,VWS V14.01,2013-03-03 19:39:00,
2013-03-03 13:44:00,28.0,28.0,29.00,North,0,0.0,4.0,100,0.01,,CLR,0.03,VWS V14.01,2013-03-03 19:44:00,
2013-03-03 13:49:00,28.2,28.2,29.00,NW,326,4.0,6.0,100,0.01,,CLR,0.03,VWS V14.01,2013-03-03 19:49:00,
2013-03-03 13:54:00,28.4,28.4,28.99,SSE,147,2.0,4.0,100,0.01,,CLR,0.03,VWS V14.01,2013-03-03 19:54:00,
2013-03-03 13:59:00,28.6,28.6,28.99,North,6,4.0,4.0,100,0.01,,CLR,0.03,VWS V14.01,2013-03-03 19:59:00,
2013-03-03 14:04:00,28.6,28.6,29.00,North,3,3.0,5.0,100,0.01,,CLR,0.03,VWS V14.01,2013-03-03 20:04:00,
2013-03-03 14:09:00,28.6,28.6,28.99,ENE,60,1.0,5.0,100,0.01,,CLR,0.03,VWS V14.01,2013-03-03 20:09:00,
2013-03-03 14:14:00,28.8,28.8,28.99,East,100,0.0,4.0,100,0.00,,CLR,0.03,VWS V14.01,2013-03-03 20:14:00,
2013-03-03 14:19:00,29.0,29.0,28.99,NNE,12,0.0,4.0,100,0.00,,CLR,0.03,VWS V14.01,2013-03-03 20:19:00,
2013-03-03 14:24:00,29.0,29.0,29.00,North,5,2.0,5.0,100,0.00,,CLR,0.03,VWS V14.01,2013-03-03 20:24:00,
2013-03-03 14:29:00,29.0,29.0,29.00,NW,318,2.0,5.0,100,0.00,,CLR,0.03,VWS V14.01,2013-03-03 20:29:00,
2013-03-03 14:34:00,29.1,29.1,28.99,North,352,0.0,3.0,100,0.00,,CLR,0.03,VWS V14.01,2013-03-03 20:34:00,
2013-03-03 14:39:00,29.3,29.3,29.00,WSW,250,1.0,4.0,100,0.00,,CLR,0.03,VWS V14.01,2013-03-03 20:39:00,
2013-03-03 14:44:00,29.6,29.6,28.99,West,278,1.0,2.0,100,0.00,,CLR,0.03,VWS V14.01,2013-03-03 20:44:00,
2013-03-03 14:49:00,29.7,29.7,28.99,SSW,196,0.0,4.0,100,0.00,,CLR,0.03,VWS V14.01,2013-03-03 20:49:00,
2013-03-03 14:54:00,29.8,29.8,28.99,SE,136,0.0,3.0,100,0.00,,CLR,0.03,VWS V14.01,2013-03-03 20:54:00,
2013-03-03 14:59:00,29.8,29.8,28.99,ENE,73,1.0,4.0,100,0.00,,CLR,0.03,VWS V14.01,2013-03-03 20:59:00,
2013-03-03 15:04:00,29.7,29.7,28.99,NE,50,0.0,3.0,100,0.00,,CLR,0.03,VWS V14.01,2013-03-03 21:04:00,
2013-03-03 15:09:00,29.8,29.8,28.99,NE,50,1.0,3.0,100,0.00,,CLR,0.03,VWS V14.01,2013-03-03 21:09:00,
2013-03-03 15:14:00,29.7,29.7,28.99,ENE,63,0.0,3.0,100,0.00,,CLR,0.03,VWS V14.01,2013-03-03 21:14:00,
2013-03-03 15:19:00,29.8,29.8,28.99,NNE,28,0.0,3.0,100,0.00,,CLR,0.03,VWS V14.01,2013-03-03 21:19:00,
2013-03-03 15:24:00,29.9,29.9,28.99,ENE,59,0.0,1.0,100,0.00,,CLR,0.03,VWS V14.01,2013-03-03 21:24:00,
2013-03-03 15:29:00,30.2,30.2,28.99,SSW,204,2.0,2.0,100,0.00,,CLR,0.03,VWS V14.01,2013-03-03 21:29:00,
2013-03-03 15:34:00,30.3,30.3,28.99,SSW,204,0.0,2.0,100,0.00,,CLR,0.03,VWS V14.01,2013-03-03 21:34:00,
2013-03-03 15:39:00,30.3,30.3,28.99,SSW,204,0.0,2.0,100,0.00,,CLR,0.03,VWS V14.01,2013-03-03 21:39:00,
2013-03-03 15:44:00,30.5,30.5,28.99,SSE,159,0.0,4.0,100,0.00,,CLR,0.03,VWS V14.01,2013-03-03 21:44:00,
2013-03-03 15:49:00,30.5,30.5,28.99,ESE,111,3.0,4.0,100,0.00,,CLR,0.03,VWS V14.01,2013-03-03 21:49:00,
2013-03-03 15:54:00,30.5,30.5,28.99,ENE,57,2.0,3.0,100,0.00,,CLR,0.03,VWS V14.01,2013-03-03 21:54:00,
2013-03-03 15:59:00,30.5,30.5,28.99,SW,218,0.0,3.0,100,0.00,,CLR,0.03,VWS V14.01,2013-03-03 21:59:00,
2013-03-03 16:04:00,30.5,30.5,28.99,NW,322,1.0,3.0,100,0.00,,CLR,0.03,VWS V14.01,2013-03-03 22:04:00,
2013-03-03 16:09:00,30.5,30.5,28.99,ESE,119,0.0,8.0,100,0.00,,CLR,0.03,VWS V14.01,2013-03-03 22:09:00,
2013-03-03 16:14:00,30.4,30.4,28.99,SE,128,3.0,5.0,100,0.00,,CLR,0.03,VWS V14.01,2013-03-03 22:14:00,
2013-03-03 16:19:00,30.3,30.3,28.99,ESE,121,0.0,7.0,100,0.00,,CLR,0.03,VWS V14.01,2013-03-03 22:19:00,
2013-03-03 16:24:00,30.2,30.2,28.99,NE,44,2.0,3.0,100,0.00,,CLR,0.03,VWS V14.01,2013-03-03 22:24:00,
2013-03-03 16:29:00,30.0,30.0,28.99,ESE,109,2.0,6.0,100,0.00,,CLR,0.03,VWS V14.01,2013-03-03 22:29:00,
2013-03-03 16:34:00,29.8,29.8,28.99,SE,126,0.0,3.0,100,0.00,,CLR,0.03,VWS V14.01,2013-03-03 22:34:00,
2013-03-03 16:39:00,29.5,29.5,28.99,ESE,104,0.0,3.0,100,0.00,,CLR,0.03,VWS V14.01,2013-03-03 22:39:00,
2013-03-03 16:44:00,29.4,29.4,28.99,ESE,104,0.0,1.0,100,0.00,,CLR,0.03,VWS V14.01,2013-03-03 22:44:00,
2013-03-03 16:49:00,29.2,29.2,28.99,East,95,0.0,3.0,100,0.00,,CLR,0.03,VWS V14.01,2013-03-03 22:49:00,
2013-03-03 16:54:00,28.9,28.9,28.99,ENE,74,0.0,2.0,100,0.00,,CLR,0.03,VWS V14.01,2013-03-03 22:54:00,
2013-03-03 16:59:00,28.8,28.8,28.99,ENE,74,0.0,2.0,100,0.00,,CLR,0.03,VWS V14.01,2013-03-03 22:59:00,
2013-03-03 17:04:00,28.8,28.8,28.99,East,79,0.0,2.0,100,0.00,,CLR,0.03,VWS V14.01,2013-03-03 23:04:00,
2013-03-03 17:09:00,28.6,28.6,28.99,East,79,0.0,2.0,100,0.00,,CLR,0.03,VWS V14.01,2013-03-03 23:09:00,
2013-03-03 17:14:00,28.3,28.3,28.99,East,79,1.0,2.0,100,0.00,,CLR,0.03,VWS V14.01,2013-03-03 23:14:00,
2013-03-03 17:19:00,28.0,28.0,28.99,East,84,1.0,2.0,100,0.00,,CLR,0.03,VWS V14.01,2013-03-03 23:19:00,
2013-03-03 17:24:00,27.7,27.7,28.99,East,100,0.0,1.0,100,0.00,,CLR,0.03,VWS V14.01,2013-03-03 23:24:00,
2013-03-03 17:29:00,27.4,27.4,28.99,ENE,73,0.0,5.0,100,0.00,,CLR,0.03,VWS V14.01,2013-03-03 23:29:00,
2013-03-03 17:34:00,27.1,27.1,28.99,East,95,1.0,3.0,100,0.00,,CLR,0.03,VWS V14.01,2013-03-03 23:34:00,
2013-03-03 17:39:00,26.7,26.7,28.99,East,95,2.0,4.0,100,0.00,,CLR,0.03,VWS V14.01,2013-03-03 23:39:00,
2013-03-03 17:44:00,26.5,26.5,28.98,ESE,120,1.0,7.0,100,0.00,,CLR,0.03,VWS V14.01,2013-03-03 23:44:00,
2013-03-03 17:49:00,26.1,26.1,28.99,ESE,106,0.0,7.0,100,0.00,,CLR,0.03,VWS V14.01,2013-03-03 23:49:00,
2013-03-03 17:54:00,25.7,25.7,28.98,ESE,117,1.0,6.0,100,0.00,,CLR,0.03,VWS V14.01,2013-03-03 23:54:00,
2013-03-03 17:59:00,25.3,25.3,28.99,ESE,109,3.0,6.0,100,0.00,,CLR,0.03,VWS V14.01,2013-03-03 23:59:00,
2013-03-03 18:04:00,25.0,25.0,28.99,East,85,1.0,5.0,100,0.00,,CLR,0.03,VWS V14.01,2013-03-04 00:04:00,
2013-03-03 18:09:00,24.8,24.8,28.99,ESE,108,0.0,5.0,100,0.00,,CLR,0.03,VWS V14.01,2013-03-04 00:09:00,
2013-03-03 18:14:00,24.5,24.5,28.99,East,95,1.0,4.0,100,0.00,,CLR,0.03,VWS V14.01,2013-03-04 00:14:00,
2013-03-03 18:19:00,24.2,24.2,28.99,SE,127,3.0,5.0,100,0.00,,CLR,0.03,VWS V14.01,2013-03-04 00:19:00,
2013-03-03 18:24:00,23.9,23.9,28.99,ENE,78,1.0,4.0,100,0.00,,CLR,0.03,VWS V14.01,2013-03-04 00:24:00,
2013-03-03 18:29:00,23.6,23.6,28.99,East,96,1.0,5.0,100,0.00,,CLR,0.03,VWS V14.01,2013-03-04 00:29:00,
2013-03-03 18:34:00,23.4,23.4,28.99,ESE,107,2.0,5.0,100,0.00,,CLR,0.03,VWS V14.01,2013-03-04 00:34:00,
2013-03-03 18:39:00,23.2,23.2,28.99,ENE,76,1.0,5.0,100,0.00,,CLR,0.03,VWS V14.01,2013-03-04 00:39:00,
2013-03-03 18:44:00,23.0,23.0,28.99,East,100,3.0,7.0,100,0.00,,CLR,0.03,VWS V14.01,2013-03-04 00:44:00,
2013-03-03 18:49:00,22.8,22.8,28.99,ESE,110,1.0,7.0,100,0.00,,CLR,0.03,VWS V14.01,2013-03-04 00:49:00,
2013-03-03 18:54:00,22.6,22.6,29.00,SE,132,2.0,5.0,100,0.00,,CLR,0.03,VWS V14.01,2013-03-04 00:54:00,
2013-03-03 18:59:00,22.3,22.3,29.00,SSE,157,2.0,5.0,100,0.00,,CLR,0.03,VWS V14.01,2013-03-04 00:59:00,
2013-03-03 19:04:00,22.1,22.1,29.00,SE,128,0.0,1.0,100,0.00,,CLR,0.03,VWS V14.01,2013-03-04 01:04:00,
2013-03-03 19:09:00,21.8,21.8,29.00,SE,128,1.0,3.0,100,0.00,,CLR,0.03,VWS V14.01,2013-03-04 01:09:00,
2013-03-03 19:14:00,21.5,21.5,29.00,SSE,150,0.0,4.0,100,0.00,,CLR,0.03,VWS V14.01,2013-03-04 01:14:00,
2013-03-03 19:19:00,21.2,21.2,29.00,SSE,152,0.0,4.0,100,0.00,,CLR,0.03,VWS V14.01,2013-03-04 01:19:00,
2013-03-03 19:24:00,21.0,21.0,29.00,SSE,147,2.0,5.0,100,0.00,,CLR,0.03,VWS V14.01,2013-03-04 01:24:00,
2013-03-03 19:29:00,20.8,20.8,28.99,ESE,112,1.0,5.0,100,0.00,,CLR,0.03,VWS V14.01,2013-03-04 01:29:00,
2013-03-03 19:34:00,20.7,20.7,29.00,SE,140,0.0,3.0,100,0.00,,CLR,0.03,VWS V14.01,2013-03-04 01:34:00,
2013-03-03 19:39:00,20.6,20.6,29.00,SE,140,0.0,4.0,100,0.00,,CLR,0.03,VWS V14.01,2013-03-04 01:39:00,
2013-03-03 19:44:00,20.5,20.5,29.00,SE,146,0.0,4.0,100,0.00,,CLR,0.03,VWS V14.01,2013-03-04 01:44:00,
2013-03-03 19:49:00,20.1,20.1,29.00,SSE,148,1.0,4.0,100,0.00,,CLR,0.03,VWS V14.01,2013-03-04 01:49:00,
2013-03-03 19:54:00,19.9,19.9,29.00,SSE,154,1.0,5.0,100,0.00,,CLR,0.03,VWS V14.01,2013-03-04 01:54:00,
2013-03-03 19:59:00,19.8,19.8,29.00,SE,139,2.0,6.0,100,0.00,,CLR,0.03,VWS V14.01,2013-03-04 01:59:00,
2013-03-03 20:04:00,19.7,19.7,29.00,SSE,156,0.0,5.0,100,0.00,,CLR,0.03,VWS V14.01,2013-03-04 02:04:00,
2013-03-03 20:09:00,19.6,19.6,29.00,SE,124,2.0,5.0,100,0.00,,CLR,0.03,VWS V14.01,2013-03-04 02:09:00,
2013-03-03 20:14:00,19.5,19.5,29.00,SE,146,0.0,2.0,100,0.00,,CLR,0.03,VWS V14.01,2013-03-04 02:14:00,
2013-03-03 20:19:00,19.4,19.4,29.00,SE,130,0.0,4.0,100,0.00,,CLR,0.03,VWS V14.01,2013-03-04 02:19:00,
2013-03-03 20:24:00,19.2,19.2,29.00,SE,130,0.0,1.0,100,0.00,,CLR,0.03,VWS V14.01,2013-03-04 02:24:00,
2013-03-03 20:29:00,19.1,19.1,29.00,SE,133,1.0,3.0,100,0.00,,CLR,0.03,VWS V14.01,2013-03-04 02:29:00,
2013-03-03 20:34:00,19.0,19.0,29.00,SSE,149,0.0,3.0,100,0.00,,CLR,0.03,VWS V14.01,2013-03-04 02:34:00,
2013-03-03 20:39:00,18.9,18.9,29.00,SSE,149,0.0,3.0,100,0.00,,CLR,0.03,VWS V14.01,2013-03-04 02:39:00,
2013-03-03 20:44:00,18.7,18.7,29.01,SSE,148,0.0,2.0,100,0.00,,CLR,0.03,VWS V14.01,2013-03-04 02:44:00,
2013-03-03 20:49:00,18.7,18.7,29.01,SSE,148,0.0,2.0,100,0.00,,CLR,0.03,VWS V14.01,2013-03-04 02:49:00,
2013-03-03 20:54:00,18.6,18.6,29.01,SE,146,0.0,3.0,100,0.00,,CLR,0.03,VWS V14.01,2013-03-04 02:54:00,
2013-03-03 20:59:00,18.5,18.5,29.01,SSE,148,0.0,3.0,100,0.00,,CLR,0.03,VWS V14.01,2013-03-04 02:59:00,
2013-03-03 21:04:00,18.4,18.4,29.01,ESE,114,0.0,3.0,100,0.00,,CLR,0.03,VWS V14.01,2013-03-04 03:04:00,
2013-03-03 21:09:00,18.4,18.4,29.00,SE,130,1.0,3.0,100,0.00,,CLR,0.03,VWS V14.01,2013-03-04 03:09:00,
2013-03-03 21:14:00,18.4,18.4,29.00,ESE,102,3.0,3.0,100,0.00,,CLR,0.03,VWS V14.01,2013-03-04 03:14:00,
2013-03-03 21:19:00,18.4,18.4,29.00,ESE,119,0.0,4.0,100,0.00,,CLR,0.03,VWS V14.01,2013-03-04 03:19:00,
2013-03-03 21:24:00,18.4,18.4,29.01,ESE,122,1.0,4.0,100,0.00,,CLR,0.03,VWS V14.01,2013-03-04 03:24:00,
2013-03-03 21:29:00,18.3,18.3,29.00,ESE,108,1.0,6.0,100,0.00,,CLR,0.03,VWS V14.01,2013-03-04 03:29:00,
2013-03-03 21:34:00,18.2,18.2,29.00,ESE,102,0.0,7.0,100,0.00,,CLR,0.03,VWS V14.01,2013-03-04 03:34:00,
2013-03-03 21:39:00,18.1,18.1,29.00,SE,141,1.0,7.0,100,0.00,,CLR,0.03,VWS V14.01,2013-03-04 03:39:00,
2013-03-03 21:44:00,18.1,18.1,29.00,ESE,116,3.0,6.0,100,0.00,,CLR,0.03,VWS V14.01,2013-03-04 03:44:00,
2013-03-03 21:49:00,18.2,18.2,29.00,East,99,2.0,9.0,100,0.00,,CLR,0.03,VWS V14.01,2013-03-04 03:49:00,
2013-03-03 21:54:00,18.2,18.2,29.00,ESE,108,3.0,9.0,100,0.00,,CLR,0.03,VWS V14.01,2013-03-04 03:54:00,
2013-03-03 21:59:00,18.3,18.3,29.00,ESE,107,0.0,9.0,100,0.00,,CLR,0.03,VWS V14.01,2013-03-04 03:59:00,
2013-03-03 22:04:00,18.3,18.3,28.99,ESE,102,0.0,5.0,100,0.00,,CLR,0.03,VWS V14.01,2013-03-04 04:04:00,
2013-03-03 22:09:00,18.3,18.3,28.99,ESE,116,0.0,6.0,100,0.00,,CLR,0.03,VWS V14.01,2013-03-04 04:09:00,
2013-03-03 22:14:00,18.2,18.2,28.99,ESE,113,1.0,4.0,100,0.00,,CLR,0.03,VWS V14.01,2013-03-04 04:14:00,
2013-03-03 22:19:00,18.2,18.2,28.99,SE,144,0.0,5.0,100,0.00,,CLR,0.03,VWS V14.01,2013-03-04 04:19:00,
2013-03-03 22:24:00,18.0,18.0,29.00,SE,127,0.0,4.0,100,0.00,,CLR,0.03,VWS V14.01,2013-03-04 04:24:00,
2013-03-03 22:29:00,17.8,17.8,29.00,SE,127,0.0,4.0,100,0.00,,CLR,0.03,VWS V14.01,2013-03-04 04:29:00,
2013-03-03 22:34:00,17.6,17.6,29.00,SE,127,0.0,1.0,100,0.00,,CLR,0.03,VWS V14.01,2013-03-04 04:34:00,
2013-03-03 22:39:00,17.4,17.4,29.00,SE,127,0.0,1.0,100,0.00,,CLR,0.03,VWS V14.01,2013-03-04 04:39:00,
2013-03-03 22:44:00,17.3,17.3,29.00,SE,127,0.0,0.0,100,0.00,,CLR,0.03,VWS V14.01,2013-03-04 04:44:00,
2013-03-03 22:49:00,17.2,17.2,29.00,SE,127,0.0,3.0,100,0.00,,CLR,0.03,VWS V14.01,2013-03-04 04:49:00,
2013-03-03 22:54:00,17.0,17.0,29.00,SSE,160,1.0,3.0,100,0.00,,CLR,0.03,VWS V14.01,2013-03-04 04:54:00,
2013-03-03 22:59:00,16.9,16.9,29.00,SSE,148,4.0,4.0,100,0.00,,CLR,0.03,VWS V14.01,2013-03-04 04:59:00,
2013-03-03 23:00:00,16.9,16.9,29.00,SSE,148,3.0,4.0,100,0.00,,CLR,0.03,VWS V14.01,2013-03-04 05:00:00,
2013-03-03 23:05:00,16.9,16.9,29.00,ESE,116,1.0,5.0,100,0.00,,CLR,0.03,VWS V14.01,2013-03-04 05:05:00,
2013-03-03 23:10:00,16.9,16.9,29.00,South,170,3.0,3.0,100,0.00,,CLR,0.03,VWS V14.01,2013-03-04 05:10:00,
2013-03-03 23:15:00,16.9,16.9,29.00,SE,125,0.0,3.0,100,0.00,,CLR,0.03,VWS V14.01,2013-03-04 05:15:00,
2013-03-03 23:20:00,16.8,16.8,28.99,SE,137,4.0,4.0,100,0.00,,CLR,0.03,VWS V14.01,2013-03-04 05:20:00,
2013-03-03 23:25:00,16.7,16.7,28.99,SE,131,1.0,5.0,100,0.00,,CLR,0.03,VWS V14.01,2013-03-04 05:25:00,
2013-03-03 23:30:00,16.7,16.7,28.99,SSE,151,4.0,4.0,100,0.00,,CLR,0.03,VWS V14.01,2013-03-04 05:30:00,
2013-03-03 23:35:00,16.7,16.7,28.99,SSE,159,0.0,4.0,100,0.00,,CLR,0.03,VWS V14.01,2013-03-04 05:35:00,
2013-03-03 23:40:00,16.6,16.6,28.99,SSE,159,0.0,0.0,100,0.00,,CLR,0.03,VWS V14.01,2013-03-04 05:40:00,
2013-03-03 23:45:00,16.5,16.5,28.99,SE,130,3.0,3.0,100,0.00,,CLR,0.03,VWS V14.01,2013-03-04 05:45:00,
2013-03-03 23:50:00,16.6,16.6,28.99,ESE,106,2.0,4.0,100,0.00,,CLR,0.03,VWS V14.01,2013-03-04 05:50:00,
2013-03-03 23:55:00,16.6,16.6,28.99,East,100,3.0,5.0,100,0.00,,CLR,0.03,VWS V14.01,2013-03-04 05:55:00,